(209156) = 2003 UO10

Discovered at Anderson Mesa on 2003-10-19 by LONEOS.

Orbit

Orbit type: Main Belt

Note: WebGL enabled browser required.

epoch2023-09-13.0
epoch JD2460200.5
perihelion date2021-11-10.05073
perihelion JD2459528.55073
argument of perihelion (°)292.69387
ascending node (°)213.51910
inclination (°)29.42499
eccentricity0.2415082
perihelion distance (AU)2.0069749
Tisserand w.r.t. Jupiter3.2
ΔV w.r.t. Earth (km/sec)12.7
semimajor axis (AU)2.6460072
mean anomaly (°)153.86995
mean daily motion (°/day)0.22899040
aphelion distance (AU)3.285
period (years)4.3
P-vector [x]-0.76538958
P-vector [y]0.59947655
P-vector [z]-0.23410824
Q-vector [x]-0.58359084
Q-vector [y]-0.79985503
Q-vector [z]-0.14019149
absolute magnitude15.52
phase slope0.15
uncertainty0
referenceMPEC 2023-X152
observations used768
oppositions13
arc length (days)6815
first opposition used2003
last opposition used2022
residual rms (arc-secs)0.68
perturbers coarse indicatorM-v
perturbers precise indicator003Ek
first observation date used2003-10-19.0
last observation date used2022-06-16.0
computer nameMPCLINUX
JD of orbit computation2456909.217648
perihelion JD uncertainty (days)8.1128E-05
argument of perihelion uncertainty (°)2.0761E-05
ascending node uncertainty (°)9.0874E-06
inclination uncertainty (°)9.9608E-06
eccentricity uncertainty 4.9157E-08
perihelion distance uncertainty (AU)1.2500E-07
Minimum Orbit Intersection Distances (in AU)
for orbit epoch: 2460200.5, reference: E2023-XF2
Mercury1.69794
Venus1.40758
Earth1.14652
Mars0.61358
Jupiter2.10315
Saturn6.46976
Uranus16.3737
Neptune26.9096

Observations

785 total observations over interval: 2003 10 19.38357 – 2022 06 16.217878
These data are available for download (format description).

Date (UT) J2000 RA J2000 Dec Magn Location Ref
2003 10 19.38357 03 53 10.60 +09 24 23.5 19.5 R 699 – Lowell Observatory-LONEOS MPS 88324
2003 10 19.39681 03 53 10.18 +09 24 13.2   699 – Lowell Observatory-LONEOS MPS 88324
2003 10 19.41011 03 53 09.77 +09 24 00.8   699 – Lowell Observatory-LONEOS MPS 88324
2003 10 19.42329 03 53 09.42 +09 23 49.3   699 – Lowell Observatory-LONEOS MPS 88324
2003 10 21.35754 03 52 10.60 +08 54 34.5 19.3   704 – Lincoln Laboratory ETS, New Mexico MPS 88324
2003 10 21.36944 03 52 10.14 +08 54 22.9 19.6   704 – Lincoln Laboratory ETS, New Mexico MPS 88324
2003 10 21.38137 03 52 09.78 +08 54 14.8 19.4   704 – Lincoln Laboratory ETS, New Mexico MPS 88324
2003 10 21.39307 03 52 09.39 +08 54 03.0 19.6   704 – Lincoln Laboratory ETS, New Mexico MPS 88324
2003 10 21.48723 03 52 06.20 +08 52 36.5 19.1   644 – Palomar Mountain/NEAT MPS 88324
2003 10 21.50852 03 52 05.54 +08 52 16.5 19.8   644 – Palomar Mountain/NEAT MPS 88324
2003 10 21.52970 03 52 04.78 +08 51 56.9 19.9   644 – Palomar Mountain/NEAT MPS 88324
2003 10 23.56096 03 50 56.37 +08 20 41.2 20.3   608 – Haleakala-AMOS MPS 88324
2003 10 23.57190 03 50 55.96 +08 20 30.8 20.5   608 – Haleakala-AMOS MPS 88324
2003 10 23.58241 03 50 55.59 +08 20 21.1 20.3   608 – Haleakala-AMOS MPS 88324
2003 10 28.55522 03 47 42.72 +07 01 55.2 21.2   608 – Haleakala-AMOS MPS 89590
2003 10 28.56576 03 47 42.30 +07 01 45.3 21.0   608 – Haleakala-AMOS MPS 89590
2003 10 28.57629 03 47 41.78 +07 01 35.5 20.7   608 – Haleakala-AMOS MPS 89590
2003 11 18.29719 03 29 53.99 +01 32 28.1 18.7   644 – Palomar Mountain/NEAT MPS 91032
2003 11 18.36516 03 29 50.04 +01 31 27.3 18.6   644 – Palomar Mountain/NEAT MPS 91032
2003 11 18.42838 03 29 46.35 +01 30 31.0 18.8   644 – Palomar Mountain/NEAT MPS 91032
2003 11 19.32749 03 28 55.57 +01 17 10.5 18.5   644 – Palomar Mountain/NEAT MPS 91032
2003 11 19.35150 03 28 54.17 +01 16 49.0 18.5   644 – Palomar Mountain/NEAT MPS 91032
2003 11 19.37277 03 28 52.93 +01 16 30.3 18.9   644 – Palomar Mountain/NEAT MPS 91032
2003 11 20.283680 03 28 01.524 +01 03 08.66 19.13 V 645 – Apache Point-Sloan Digital Sky Survey MPS 137023
2003 11 20.28389 03 28 01.57 +01 03 08.8 19.0   644 – Palomar Mountain/NEAT MPS 91032
2003 11 20.287152 03 28 01.320 +01 03 05.67 19.99   645 – Apache Point-Sloan Digital Sky Survey MPS 137023
2003 11 20.35242 03 27 57.57 +01 02 08.9 18.5   644 – Palomar Mountain/NEAT MPS 91032
2003 11 20.41512 03 27 53.93 +01 01 14.3 18.7   644 – Palomar Mountain/NEAT MPS 91032
2003 11 21.24433 03 27 07.40 +00 49 14.1 19.1 V 703 – Catalina Sky Survey MPS 91857
2003 11 21.25788 03 27 06.60 +00 49 01.6 18.6 V 703 – Catalina Sky Survey MPS 91857
2003 11 21.27141 03 27 05.79 +00 48 50.3 18.6 V 703 – Catalina Sky Survey MPS 91857
2003 11 21.28494 03 27 04.96 +00 48 39.2 18.5 V 703 – Catalina Sky Survey MPS 91857
2003 11 29.19720 03 19 51.46 -00 57 41.3 19.1   704 – Lincoln Laboratory ETS, New Mexico MPS 92757
2003 11 29.21053 03 19 50.70 -00 57 51.4 19.6   704 – Lincoln Laboratory ETS, New Mexico MPS 92757
2003 11 29.22359 03 19 49.98 -00 58 01.8 19.6   704 – Lincoln Laboratory ETS, New Mexico MPS 92757
2003 11 29.23674 03 19 49.26 -00 58 10.6 19.3   704 – Lincoln Laboratory ETS, New Mexico MPS 92757
2003 11 29.24995 03 19 48.56 -00 58 20.4 19.8   704 – Lincoln Laboratory ETS, New Mexico MPS 92757
2003 12 03.30340 03 16 22.72 -01 46 16.0 18.5 R 699 – Lowell Observatory-LONEOS MPS 92757
2003 12 03.32342 03 16 21.68 -01 46 28.9   699 – Lowell Observatory-LONEOS MPS 92757
2003 12 03.34343 03 16 20.65 -01 46 44.7   699 – Lowell Observatory-LONEOS MPS 92757
2003 12 03.36347 03 16 19.74 -01 46 56.5   699 – Lowell Observatory-LONEOS MPS 92757
2003 12 13.19602 03 09 16.30 -03 22 01.0 19.0   704 – Lincoln Laboratory ETS, New Mexico MPS 93720
2003 12 13.20906 03 09 15.77 -03 22 07.5 19.2   704 – Lincoln Laboratory ETS, New Mexico MPS 93720
2003 12 13.22208 03 09 15.29 -03 22 13.6 18.9   704 – Lincoln Laboratory ETS, New Mexico MPS 93720
2003 12 13.23514 03 09 14.77 -03 22 20.2 19.1   704 – Lincoln Laboratory ETS, New Mexico MPS 93720
2003 12 13.24831 03 09 14.22 -03 22 26.4 19.1   704 – Lincoln Laboratory ETS, New Mexico MPS 93720
2003 12 22.20559 03 04 48.42 -04 21 58.7 19.7   644 – Palomar Mountain/NEAT MPS 94716
2003 12 22.22617 03 04 47.92 -04 22 05.3 19.7   644 – Palomar Mountain/NEAT MPS 94716
2003 12 22.24642 03 04 47.42 -04 22 11.5 19.4   644 – Palomar Mountain/NEAT MPS 94716
2005 04 05.40827 15 59 01.39 -12 26 59.4   704 – Lincoln Laboratory ETS, New Mexico MPS 407436
2005 04 05.42884 15 59 01.01 -12 26 39.8   704 – Lincoln Laboratory ETS, New Mexico MPS 407436
2005 04 17.47592 15 53 51.76 -09 03 44.1 19.2 V 691 – Steward Observatory, Kitt Peak-Spacewatch MPS 133976
2005 04 17.48382 15 53 51.46 -09 03 35.7 19.2 V 691 – Steward Observatory, Kitt Peak-Spacewatch MPS 133976
2005 04 17.49175 15 53 51.17 -09 03 27.6 19.2 V 691 – Steward Observatory, Kitt Peak-Spacewatch MPS 133976
2005 05 07.00988 15 38 41.92 -03 26 28.6 18.8 V 170 – Observatorio de Begues MPS 133976
2005 05 07.01066 15 38 41.88 -03 26 28.0 18.7 V 170 – Observatorio de Begues MPS 133976
2005 05 07.01375 15 38 41.72 -03 26 25.4 18.5 V 170 – Observatorio de Begues MPS 133976
2005 05 08.34090 15 37 29.87 -03 04 54.4 18.0 R 699 – Lowell Observatory-LONEOS MPS 133976
2005 05 08.36271 15 37 28.64 -03 04 33.6   699 – Lowell Observatory-LONEOS MPS 133976
2005 05 08.38454 15 37 27.41 -03 04 11.8   699 – Lowell Observatory-LONEOS MPS 133976
2005 05 08.42805 15 37 24.97 -03 03 30.5   699 – Lowell Observatory-LONEOS MPS 133976
2005 05 20.21850 15 26 49.98 -00 10 33.9 18.8   644 – Palomar Mountain/NEAT MPS 135344
2005 05 20.23989 15 26 48.83 -00 10 17.5 18.4   644 – Palomar Mountain/NEAT MPS 135344
2005 05 20.26020 15 26 47.75 -00 10 01.4 18.6   644 – Palomar Mountain/NEAT MPS 135344
2005 05 31.29986 15 18 02.01 +01 55 05.8 18.9 V 703 – Catalina Sky Survey MPS 135597
2005 05 31.30791 15 18 01.76 +01 55 08.2 18.8 V 703 – Catalina Sky Survey MPS 135597
2005 05 31.31596 15 18 01.11 +01 55 12.8 19.2 V 703 – Catalina Sky Survey MPS 135597
2005 05 31.32406 15 18 00.82 +01 55 18.3 18.1 V 703 – Catalina Sky Survey MPS 135597
2005 06 01.27568 15 17 21.08 +02 04 13.1 19.1 R 699 – Lowell Observatory-LONEOS MPS 135597
2005 06 01.29582 15 17 20.24 +02 04 24.3   699 – Lowell Observatory-LONEOS MPS 135597
2005 06 01.31594 15 17 19.42 +02 04 35.2   699 – Lowell Observatory-LONEOS MPS 135597
2005 06 01.33607 15 17 18.51 +02 04 45.5   699 – Lowell Observatory-LONEOS MPS 135597
2005 06 06.22849 15 14 11.27 +02 45 46.3 19.1   704 – Lincoln Laboratory ETS, New Mexico MPS 135944
2005 06 06.23832 15 14 11.03 +02 45 49.6 19.1   704 – Lincoln Laboratory ETS, New Mexico MPS 135944
2005 06 06.24826 15 14 10.61 +02 45 53.7 19.4   704 – Lincoln Laboratory ETS, New Mexico MPS 135944
2005 06 06.25814 15 14 10.23 +02 45 58.7 19.0   704 – Lincoln Laboratory ETS, New Mexico MPS 135944
2007 10 08.33315 01 36 25.99 +18 40 51.7 19.0 V 703 – Catalina Sky Survey MPS 223400
2007 10 08.34590 01 36 25.27 +18 40 42.1 19.3 V 703 – Catalina Sky Survey MPS 223400
2007 10 08.35860 01 36 24.73 +18 40 33.0 19.2 V 703 – Catalina Sky Survey MPS 223400
2007 10 08.37139 01 36 24.01 +18 40 23.1 19.6 V 703 – Catalina Sky Survey MPS 223400
2007 10 12.24871 01 33 13.87 +17 51 33.0 19.3   704 – Lincoln Laboratory ETS, New Mexico MPS 220421
2007 10 12.25406 01 33 13.64 +17 51 29.1 19.9   704 – Lincoln Laboratory ETS, New Mexico MPS 220421
2007 10 12.25993 01 33 13.33 +17 51 25.2 20.3   704 – Lincoln Laboratory ETS, New Mexico MPS 220421
2007 10 12.27114 01 33 12.72 +17 51 15.6 19.9   704 – Lincoln Laboratory ETS, New Mexico MPS 220421
2007 10 12.27651 01 33 12.48 +17 51 11.1 20.2   704 – Lincoln Laboratory ETS, New Mexico MPS 220421
2007 10 12.28236 01 33 12.16 +17 51 07.5 20.0   704 – Lincoln Laboratory ETS, New Mexico MPS 220421
2007 10 12.28783 01 33 11.85 +17 51 02.9 20.5   704 – Lincoln Laboratory ETS, New Mexico MPS 220421
2007 10 12.28821 01 33 11.84 +17 51 02.7 19.8 r 699 – Lowell Observatory-LONEOS MPS 272406
2007 10 12.29369 01 33 11.53 +17 50 58.9 19.5   704 – Lincoln Laboratory ETS, New Mexico MPS 220421
2007 10 12.29905 01 33 11.27 +17 50 54.6 19.9   704 – Lincoln Laboratory ETS, New Mexico MPS 220421
